Location: Grand Canyon Star Party (South Rim)
(36.0641°N, 112.1172°W)
Time: 04:58:55
(UTC-07:00)

ISS - Visible Passes

Search period start: 18 July 2018 00:00
Search period end: 28 July 2018 00:00
Orbit: 402 x 408 km, 51.6° (Epoch: 18 July)

Date Brightness Start Highest point End Pass type
(mag) Time Alt. Az. Time Alt. Az. Time Alt. Az.
18 Jul -1.5 04:20:49 10° NNW 04:23:42 27° NNE 04:26:34 10° E visible
18 Jul -3.2 20:58:46 10° SSW 21:01:43 33° SE 21:04:27 12° ENE visible
18 Jul -1.3 22:35:36 10° W 22:38:15 23° NNW 22:40:55 10° NNE visible
19 Jul -0.7 03:29:09 10° NNW 03:31:25 17° NNE 03:33:40 10° ENE visible
19 Jul -2.4 21:42:55 10° WSW 21:46:01 39° NW 21:49:07 10° NE visible
20 Jul -0.3 02:37:49 10° N 02:39:02 12° NNE 02:40:14 10° NE visible
20 Jul -3.5 04:12:46 10° NW 04:16:02 68° NE 04:19:17 10° SE visible
20 Jul -3.8 20:50:36 10° SW 20:53:51 82° NW 20:57:07 10° NE visible
20 Jul -0.3 22:29:16 10° NW 22:30:47 13° NNW 22:32:19 10° N visible
21 Jul -2.1 03:20:49 10° NNW 03:23:51 34° NE 03:26:52 10° ESE visible
21 Jul -0.9 21:35:59 10° WNW 21:38:24 19° NNW 21:40:50 10° NNE visible
22 Jul -1.1 02:29:02 10° NNW 02:31:34 20° NNE 02:34:05 10° E visible
22 Jul -3.5 04:05:04 10° WNW 04:08:11 40° SW 04:11:16 10° SSE visible
22 Jul -1.8 20:43:09 10° W 20:46:06 31° NW 20:49:04 10° NNE visible
23 Jul -0.3 21:29:57 10° NW 21:30:55 11° NNW 21:31:53 10° N visible
24 Jul -0.7 20:36:19 10° WNW 20:38:28 16° NNW 20:40:37 10° NNE visible
